Regional Weather Roundup
Issued by NWS

Home | Current Version | Previous Version | Graphics & Text | Print | Product List | Glossary On
Versions: 1 2 3 4 5 6 7 8 9 10 11 12 13 14 15 16 17 18 19 20 21 22 23 24 25 26 27 28 29 30 31 32 33 34 35 36 37 38 39 40 41 42 43 44 45 46 47 48 49 50
000
ASUS43 KMKX 262011
RWRWI

WISCONSIN REGIONAL WEATHER ROUNDUP
NATIONAL WEATHER SERVICE MILWAUKEE/SULLIVAN WI
200 PM CST WED NOV 26 2014

NOTE: "FAIR" INDICATES FEW OR NO CLOUDS BELOW 12,000 FEET WITH NO
SIGNIFICANT WEATHER AND/OR OBSTRUCTIONS TO VISIBILITY.

WIZ001-002-006>008-014>016-023>028-262100-
NORTHWEST WISCONSIN

CITY           SKY/WX    TMP DP  RH WIND       PRES   REMARKS
SUPERIOR ARPT  MOSUNNY   21  10  62 NW10      30.24S WCI  10
ASHLAND        LGT SNOW  24  19  81 NW13      30.20R WCI  12
HAYWARD        CLOUDY    24  18  77 VRB3      30.16S
SIREN          CLOUDY    25  17  71 N8        30.20R WCI  16
CUMBERLAND     CLOUDY    23  18  80 N9        30.16S WCI  13
RICE LAKE      CLOUDY    25  19  79 N6        30.18R WCI  18
CHETEK         LGT SNOW  24  20  84 NW3       30.17R
LADYSMITH      LGT SNOW  25  21  84 NW7       30.16S WCI  17
EAU CLAIRE     LGT SNOW  25  19  78 CALM      30.17R
MENOMONIE      LGT SNOW  25  20  79 N5        30.18S WCI  20
NEW RICHMOND   CLOUDY    25  21  85 N8        30.19R FOG     WCI  16
OSCEOLA        CLOUDY    26  18  73 N8        30.22R WCI  17
$$

WIZ003>005-009-010-017-018-262100-
NORTH CENTRAL WISCONSIN

CITY           SKY/WX    TMP DP  RH WIND       PRES   REMARKS
MANITOWISH WTR LGT SNOW  21  18  87 NW6       30.10S WCI  13
ARBOR VITAE    LGT SNOW  23  19  84 N6        30.10S WCI  16
WOODRUFF       LGT SNOW  23  19  84 N6        30.10S WCI  16
RHINELANDER    LGT SNOW  22  16  78 NW6       30.10S WCI  14
EAGLE RIVER    LGT SNOW  22  16  78 W5        30.09S WCI  16
LAND O LAKES   LGT SNOW  22  19  85 W5        30.10R WCI  16
PHILLIPS       LGT SNOW  22  18  84 N3        30.11S
TOMAHAWK       LGT SNOW  23  18  82 CALM      30.12R
MEDFORD        LGT SNOW  24  18  80 NW5       30.11R WCI  18
MERRILL        CLOUDY    25  14  63 NW6       30.12R WCI  18
$$

WIZ029-030-035-036-043>047-262100-
CENTRAL WISCONSIN

CITY           SKY/WX    TMP DP  RH WIND       PRES   REMARKS
WAUSAU         CLOUDY    24  18  77 CALM      30.11S
MOSINEE        PTSUNNY   25  21  86 CALM      30.13S
MARSHFIELD     CLOUDY    26  16  65 CALM      30.12R
STEVENS POINT  CLOUDY    22  16  80 CALM      30.14S
WAUPACA        CLOUDY    23  20  87 CALM      30.16S
WAUTOMA        PTSUNNY   23  18  81 CALM      30.15F
WISC RAPIDS    MOSUNNY   24  16  71 CALM      30.14F
CAMP DOUGLAS   CLOUDY    25  21  86 E6        30.13S WCI  18
$$

WIZ011>013-019>022-031-037>040-048>050-262100-
NORTHEAST WISCONSIN

CITY           SKY/WX    TMP DP  RH WIND       PRES   REMARKS
ANTIGO         CLOUDY    20  19  94 CALM      30.10S
SHAWANO        CLOUDY    24  19  80 CALM      30.16S
OCONTO         CLOUDY    23  19  83 N5        30.16S WCI  17
STURGEON BAY   PTSUNNY   25  18  74 W6        30.15S WCI  18
GREEN BAY      PTSUNNY   25  19  78 NW8       30.16R WCI  16
MANITOWOC      CLOUDY    27  22  81 NW6       30.15S WCI  20
APPLETON       PTSUNNY   23  19  86 W6        30.14S WCI  16
CLINTONVILLE   CLOUDY    23  18  80 CALM      30.16R
OSHKOSH        PTSUNNY   23  17  78 MISG      30.14S HAZE
$$

WIZ032>034-041-042-053>061-262100-
SOUTHWEST WISCONSIN

CITY           SKY/WX    TMP DP  RH WIND       PRES   REMARKS
LA CROSSE      CLOUDY    29  20  69 NW7       30.15S WCI  22
SPARTA         PTSUNNY   28  18  64 CALM      30.15R
VIROQUA        CLOUDY    27  22  81 N7        30.10R WCI  19
BOSCOBEL       CLOUDY    25  20  81 NE6       30.14R HAZE    WCI  18
PRAIRIE DU CHI CLOUDY    27  21  79 NE7       30.12R HAZE    WCI  19
PLATTEVILLE    CLOUDY    26  24  90 NE7       30.09S WCI  19
$$

WIZ056-057-062-063-064-067-068-262100-
SOUTH CENTRAL WISCONSIN

CITY           SKY/WX    TMP DP  RH WIND       PRES   REMARKS
REEDSBURG      CLOUDY    22  18  83 NE3       30.13S
BARABOO/DELLS  CLOUDY    20  18  93 NE6       30.13R FOG     WCI  12
LONE ROCK      CLOUDY    26  18  71 NE7       30.15R WCI  18
MINERAL POINT  CLOUDY    27  25  93 NE8       30.09R FOG     WCI  18
MADISON        CLOUDY    22  17  81 N7        30.13R HAZE    WCI  13
MIDDLETON      CLOUDY    24  19  83 N3        30.13R
WATERTOWN      PTSUNNY   19  18  99 CALM      30.12S FOG
MONROE         CLOUDY    25  25 100 CALM      30.09R
JANESVILLE     NOT AVBL
$$

WIZ051-052-058>065-066-070>072-262100-
SOUTHEAST WISCONSIN

CITY           SKY/WX    TMP DP  RH WIND       PRES   REMARKS
MILWAUKEE      CLOUDY    30  21  69 CALM      30.11F
WAUKESHA       CLOUDY    27  19  74 NW3       30.12S
MILWAUKEE/TIMM CLOUDY    28  19  69 CALM      30.12F
RACINE         CLOUDY    28  22  78 NW3       30.13S
BURLINGTON     CLOUDY    26  22  82 N5        30.11S WCI  21
KENOSHA        CLOUDY    28  23  81 N5        30.11S HAZE    WCI  23
FOND DU LAC    FLURRIES  24  16  71 NW3       30.13F
SHEBOYGAN      PTSUNNY   26  20  77 VRB5      30.13F WCI  20
WEST BEND      PTSUNNY   28  19  69 CALM      30.11S
JUNEAU         PTSUNNY   22  18  83 CALM      30.13R
$$

LSZ147-162-262100-
LAKE SUPERIOR

STATION/POSITION TIME  TEMP    WIND        PRES    WAVE
                       AIR SEA DIR/SP/G            HT/PER
                 (UTC) (F)     (DEG/KT/KT) (MB)    (FT/S)
DEVILS ISLAND    2000   23     350/ 12/ 15 1024.0R
PORT WING        1900   24     340/  7/  9 1023.0R
SAXON HARBOR     1900   25     240/  1/  6 1021.7S
$$

LMZ867-665-643>646-262100-
LAKE MICHIGAN

STATION/POSITION TIME  TEMP    WIND        PRES    WAVE
                       AIR SEA DIR/SP/G            HT/PER
                 (UTC) (F)     (DEG/KT/KT) (MB)    (FT/S)
CHAMBERS ISLAND  1900   24     230/  4/  5 1021.3S
N MID LAKE BUOY  1950   28 42  320/  8/ 12 1021.6F   1/ 3
NORTHPORT PIER   1900   28     320/  3/  8 1021.0S
SISTER BAY       1913           CALM  /  3   N/A
ALGOMA LAKESHORE 1813          320/  6/  9   N/A
KEWAUNEE LAKESHO 1900   25     310/  3/  6 1019.9F
SHEBOYGAN LAKESH 2000   27 35  310/  4/  5 1021.9F
PORT WASHINGTON  1940   30      40/  4/  6 1021.0F
MILWAUKEE LAKESH 1900   29     110/  2/  3   N/A
S MID LAKE BUOY  1950   31 42  160/  4/  6 1020.6F   1/ 3
KENOSHA   LAKESH 2000   28      10/  2/  5 1020.0S
$$

TC  - TEMPERATURE IN CELSIUS
VSB - VISIBILITY IN STATUTE MILES
WCI - WIND CHILL INDEX
HX  - HEAT INDEX



USA.gov is the U.S. government's official web portal to all federal, state and local government web resources and services.